Change the Weather History Date:

Wednesday, November 20, 2013

  Actual Average Record
Temperature  
Mean Temperature 56 °F -  
Max Temperature 60 °F 56 °F 79 °F (2007)
Min Temperature 51 °F 37 °F 26 °F (2000)
Degree Days  
Heating Degree Days 10    
Growing Degree Days 6 (Base 50)    
Moisture  
Dew Point 38 °F    
Average Humidity 54    
Maximum Humidity 79    
Minimum Humidity 40    
Precipitation  
Precipitation 0.00 in - - ()
Sea Level Pressure  
Sea Level Pressure 29.90 in    
Wind  
Wind Speed 18 mph (South)    
Max Wind Speed 25 mph    
Max Gust Speed 33 mph    
Visibility 10 miles    
Events      
Averages and records for this station are not official NWS values.
T = Trace of Precipitation, MM = Missing Value Source: NWS Daily Summary

Daily Weather History Graph

Daily Weather History Graph

Search for Another Location

Airport or City:

Trip Planner

Search our weather history database for the weather conditions in past years. The results will help you decide how hot, cold, wet, or windy it might be!

Date:

Astronomy

Nov. 20, 2013 Rise Set
Actual Time 7:10 AM CST 5:20 PM CST
Civil Twilight 6:42 AM CST 5:47 PM CST
Nautical Twilight 6:11 AM CST 6:18 PM CST
Astronomical Twilight 5:41 AM CST 6:48 PM CST
Moon 8:04 PM CST (11/20) 9:35 AM CST (11/20)
Length of Visible Light 11h 04m
Length of Day
10h 10m
Waning Gibbous, 91% of the Moon is Illuminated
Nov 20
Waning Gibbous
Nov 25
Last Quarter
Dec 2
New
Dec 9
First Quarter
Dec 17
Full

Hourly Weather History & Observations

Time (CST) Temp. Dew Point Humidity Pressure Visibility Wind Dir Wind Speed Gust Speed Precip Events Conditions
12:58 AM 53.1 °F 29.5 °F 40% 29.96 in 10.0 mi South 18.4 mph 27.6 mph N/A   Mostly Cloudy
1:58 AM 53.1 °F 29.8 °F 41% 29.94 in 10.0 mi South 18.4 mph 27.6 mph N/A   Overcast
2:58 AM 52.9 °F 30.0 °F 42% 29.94 in 10.0 mi South 20.7 mph 27.6 mph N/A   Mostly Cloudy
3:58 AM 52.7 °F 30.0 °F 42% 29.93 in 10.0 mi South 21.9 mph 27.6 mph N/A   Mostly Cloudy
4:12 AM 53.6 °F 32.0 °F 44% 29.91 in 10.0 mi South 19.6 mph 26.5 mph N/A   Overcast
4:58 AM 51.6 °F 32.0 °F 47% 29.92 in 10.0 mi South 15.0 mph 26.5 mph N/A   Overcast
5:26 AM 51.8 °F 32.0 °F 47% 29.90 in 10.0 mi South 16.1 mph 25.3 mph N/A   Overcast
5:58 AM 51.8 °F 32.4 °F 48% 29.92 in 10.0 mi South 20.7 mph 27.6 mph N/A   Overcast
6:02 AM 51.8 °F 32.0 °F 47% 29.91 in 10.0 mi South 20.7 mph 28.8 mph N/A   Overcast
6:34 AM 51.8 °F 32.0 °F 47% 29.90 in 10.0 mi South 18.4 mph 27.6 mph N/A   Overcast
6:58 AM 51.8 °F 32.4 °F 48% 29.93 in 10.0 mi South 19.6 mph - N/A   Overcast
7:02 AM 51.8 °F 32.0 °F 47% 29.91 in 10.0 mi South 20.7 mph - N/A   Overcast
7:53 AM 51.8 °F 32.0 °F 47% 29.92 in 10.0 mi South 20.7 mph - N/A   Overcast
7:58 AM 51.6 °F 33.6 °F 50% 29.93 in 10.0 mi South 20.7 mph 29.9 mph N/A   Overcast
8:58 AM 51.4 °F 36.3 °F 56% 29.94 in 10.0 mi South 19.6 mph 31.1 mph N/A   Overcast
9:53 AM 51.8 °F 37.4 °F 58% 29.92 in 10.0 mi South 20.7 mph 29.9 mph N/A   Overcast
9:58 AM 52.3 °F 37.2 °F 56% 29.94 in 10.0 mi South 23.0 mph 29.9 mph N/A   Overcast
10:22 AM 53.6 °F 37.4 °F 54% 29.91 in 10.0 mi South 25.3 mph 33.4 mph N/A   Overcast
10:58 AM 54.7 °F 38.1 °F 54% 29.93 in 10.0 mi South 19.6 mph 27.6 mph N/A   Overcast
11:29 AM 57.2 °F 39.2 °F 51% 29.88 in 10.0 mi South 23.0 mph 31.1 mph N/A   Mostly Cloudy
11:58 AM 58.1 °F 41.4 °F 54% 29.88 in 10.0 mi South 19.6 mph 28.8 mph N/A   Scattered Clouds
12:01 PM 59.0 °F 41.0 °F 51% 29.86 in 10.0 mi South 21.9 mph 28.8 mph N/A   Mostly Cloudy
12:04 PM 59.0 °F 41.0 °F 51% 29.86 in 10.0 mi South 20.7 mph 28.8 mph N/A   Scattered Clouds
12:58 PM 60.3 °F 42.3 °F 51% 29.85 in 10.0 mi South 23.0 mph 29.9 mph N/A   Clear
1:58 PM 58.1 °F 42.8 °F 57% 29.86 in 10.0 mi South 15.0 mph 26.5 mph N/A   Mostly Cloudy
2:00 PM 57.2 °F 42.8 °F 59% 29.84 in 10.0 mi South 17.3 mph - N/A   Overcast
2:20 PM 57.2 °F 42.8 °F 59% 29.83 in 10.0 mi South 12.7 mph - N/A   Overcast
2:58 PM 57.4 °F 42.4 °F 57% 29.85 in 10.0 mi South 17.3 mph - N/A   Scattered Clouds
3:58 PM 58.3 °F 44.2 °F 60% 29.87 in 10.0 mi South 13.8 mph - N/A   Overcast
4:58 PM 57.4 °F 43.3 °F 59% 29.88 in 10.0 mi South 15.0 mph - N/A   Clear
5:58 PM 56.1 °F 43.3 °F 62% 29.89 in 10.0 mi South 9.2 mph - N/A   Clear
6:58 PM 56.1 °F 43.9 °F 64% 29.89 in 10.0 mi SE 9.2 mph - N/A   Clear
7:58 PM 56.5 °F 45.3 °F 66% 29.88 in 10.0 mi SSE 8.1 mph - N/A   Clear
8:58 PM 57.0 °F 47.1 °F 69% 29.91 in 10.0 mi SSE 9.2 mph - N/A   Mostly Cloudy
9:58 PM 57.6 °F 48.7 °F 72% 29.91 in 10.0 mi SSE 12.7 mph - N/A   Partly Cloudy
10:58 PM 58.1 °F 50.5 °F 76% 29.90 in 10.0 mi SSE 9.2 mph - N/A   Partly Cloudy
11:58 PM 58.6 °F 52.0 °F 79% 29.92 in 10.0 mi SSE 10.4 mph - N/A   Partly Cloudy